Powrót do katalogu

METEOR 2-17 DEB

AktywnyPO
NORAD 38539·DEBRIS·🇷🇺 Russia

Wystrzelony Jan 30, 1988 z Plesetsk Cosmodrome

Loading…

Następne Przeloty (najbliższe 24 godziny)

TLE

ŚwieżeSource: Space-Track

Epoka: Sep 14, 2026, 13:12 UTC

1 38539U 88005AS  26257.55068986  .00001256  00000-0  82222-3 0  9991
2 38539  82.5351 193.2600 0035648   7.8882 352.2840 14.01150053112923

Śledź METEOR 2-17 DEB w czasie rzeczywistym z AllMySat

Download on the App Store